Regional Weather Roundup
Issued by NWS

Home | Current Version | Previous Version | Text Only | Print | Product List | Glossary On
Versions: 1 2 3 4 5 6 7 8 9 10 11 12 13 14 15 16 17 18 19 20 21 22 23 24 25 26 27 28 29 30 31 32 33 34 35 36 37 38 39 40 41 42 43 44 45 46 47 48 49 50
000
ASUS43 KLSX 191207
RWRMO

WEATHER SUMMARY FOR MISSOURI
NATIONAL WEATHER SERVICE SPRINGFIELD MO
600 AM CST MON FEB 19 2018

NOTE: "FAIR" INDICATES FEW OR NO CLOUDS BELOW 12,000 FEET WITH NO
       SIGNIFICANT WEATHER AND/OR OBSTRUCTIONS TO VISIBILITY.
       CURRENT SKY AND/OR WEATHER CONDITIONS ARE NOT AVAILABLE FOR
       CHILLICOTHE AND FARMINGTON.

MOZ001>031-035>038-043-044-053-054-191300-
...NORTHERN AND WESTERN MISSOURI...

CITY           SKY/WX    TMP DP  RH WIND       PRES   REMARKS
KANSAS CTY INT CLOUDY    63  58  83 SW25G33   29.61R
6HR MIN TEMP:  52; 6HR MAX TEMP:  63; 6HR PCP: TRACE;

KANSAS C DTWN  CLOUDY    64  57  78 S18G26    29.61F
6HR MIN TEMP:  55; 6HR MAX TEMP:  65;

LEE`S SUMMIT   CLOUDY    61  60  97 S24G36    29.65R
6HR MIN TEMP:  52; 6HR MAX TEMP:  61;

ST JOSEPH      FOG       53  53 100 CALM      29.61S VSB 1
6HR MIN TEMP:  52; 6HR MAX TEMP:  54; 6HR PCP:  0.07;

CHILLICOTHE      N/A     53  52  96 CALM      29.66S
6HR MIN TEMP:  49; 6HR MAX TEMP:  53; 6HR PCP:  0.03;

KIRKSVILLE     FOG       47  47 100 SE7       29.69F VSB 3/4
6HR MIN TEMP:  46; 6HR MAX TEMP:  50; 6HR PCP:  0.13;


$$
MOZ066>068-077>081-088>096-101>105-191300-
...SOUTHWEST MISSOURI...

CITY           SKY/WX    TMP DP  RH WIND       PRES   REMARKS
SPRINGFIELD    LGT RAIN  57  55  93 S16       29.81R
6HR MIN TEMP:  50; 6HR MAX TEMP:  57; 6HR PCP:  0.20;

JOPLIN         TSTM      61  60  97 S24G35    29.77S
6HR MIN TEMP:  57; 6HR MAX TEMP:  62; 6HR PCP:  0.12;


$$
MOZ032>034-039>042-045>050-055>058-069>072-191300-
...CENTRAL MISSOURI...

CITY           SKY/WX    TMP DP  RH WIND       PRES   REMARKS
COLUMBIA       CLOUDY    59  55  87 S20G30    29.75S
6HR MIN TEMP:  53; 6HR MAX TEMP:  59;

JEFFERSON CITY CLOUDY    59  54  83 S14       29.77F
6HR MIN TEMP:  53; 6HR MAX TEMP:  60; 6HR PCP: TRACE;

ROLLA          CLOUDY    57  55  93 S18G28    29.82F
6HR MIN TEMP:  50; 6HR MAX TEMP:  58; 6HR PCP:  0.02;

SEDALIA        CLOUDY    62  58  86 S22G31    29.72S
6HR MIN TEMP:  54; 6HR MAX TEMP:  62;

WHITEMAN AFB   CLOUDY    63  58  84 S21G33    29.65R
WARRENSBURG    CLOUDY    61  57  88 S15G25    29.68S
OSAGE BEACH    LGT RAIN  56  54  93 S13       29.79F

$$
MOZ051-052-059>065-191300-
...EAST CENTRAL MISSOURI...

CITY           SKY/WX    TMP DP  RH WIND       PRES   REMARKS
ST LOUIS INTL  LGT RAIN  59  56  89 S14G30    29.84F
6HR MIN TEMP:  51; 6HR MAX TEMP:  59; 6HR PCP:  0.01;

SPIRIT OF STL  CLOUDY    60  56  86 S17G33    29.82F
6HR MIN TEMP:  52; 6HR MAX TEMP:  61; 6HR PCP:  0.01;

ST CHARLES     LGT RAIN  59  55  87 S17G28    29.82F
6HR MIN TEMP:  50; 6HR MAX TEMP:  59; 6HR PCP: TRACE;


$$
MOZ072>076-082>087-097>100-106>115-191300-
...SOUTH CENTRAL AND SOUTHEAST MISSOURI...

CITY           SKY/WX    TMP DP  RH WIND       PRES   REMARKS
CAPE GIRARDEAU CLOUDY    56  54  93 S14G22    30.01S
6HR MIN TEMP:  51; 6HR MAX TEMP:  57;

FARMINGTON     LGT RAIN  55  55 100 S15G25    29.94R
6HR MIN TEMP:  50; 6HR MAX TEMP:  56; 6HR PCP:  0.01;

POPLAR BLUFF   LGT RAIN  57  56  96 S13G22    30.00F
6HR MIN TEMP:  51; 6HR MAX TEMP:  57; 6HR PCP:  0.04;

WEST PLAINS    FOG       53  53 100 S14       29.92F VSB 3/4
6HR MIN TEMP:  49; 6HR MAX TEMP:  53; 6HR PCP:  0.02;


$$



USA.gov is the U.S. government's official web portal to all federal, state and local government web resources and services.